TimeEDT,TemperatureF,Dew PointF,Humidity,Sea Level PressureIn,VisibilityMPH,Wind Direction,Wind SpeedMPH,Gust SpeedMPH,PrecipitationIn,Events,Conditions,WindDirDegrees,DateUTC
12:53 AM,46.9,37.9,71,30.28,10.0,ESE,4.6,-,N/A,,Clear,120,2012-10-13 04:53:00
1:53 AM,46.9,37.9,71,30.27,10.0,SE,4.6,-,N/A,,Clear,140,2012-10-13 05:53:00
2:53 AM,46.9,37.9,71,30.27,10.0,SE,3.5,-,N/A,,Clear,130,2012-10-13 06:53:00
3:53 AM,46.9,37.9,71,30.25,10.0,SE,4.6,-,N/A,,Clear,140,2012-10-13 07:53:00
4:53 AM,48.0,39.0,71,30.24,10.0,SSE,5.8,-,N/A,,Scattered Clouds,150,2012-10-13 08:53:00
5:53 AM,46.9,39.0,74,30.22,10.0,SSE,5.8,-,N/A,,Mostly Cloudy,150,2012-10-13 09:53:00
6:53 AM,48.0,39.9,74,30.21,10.0,SSE,6.9,-,N/A,,Overcast,150,2012-10-13 10:53:00
7:53 AM,45.0,39.9,82,30.21,10.0,SSE,4.6,-,N/A,,Clear,150,2012-10-13 11:53:00
8:53 AM,48.0,41.0,77,30.21,10.0,SSE,8.1,-,N/A,,Clear,150,2012-10-13 12:53:00
9:53 AM,52.0,43.0,71,30.18,10.0,SSE,9.2,-,N/A,,Clear,160,2012-10-13 13:53:00
11:23 AM,60.8,51.8,72,30.17,10.0,SW,9.2,16.1,N/A,,Mostly Cloudy,220,2012-10-13 15:23:00
11:53 AM,60.1,54.0,80,30.16,10.0,SSW,10.4,-,N/A,,Overcast,200,2012-10-13 15:53:00
12:53 PM,64.0,57.0,78,30.14,10.0,South,6.9,-,N/A,,Overcast,180,2012-10-13 16:53:00
1:53 PM,68.0,60.1,76,30.10,10.0,South,11.5,-,N/A,,Scattered Clouds,190,2012-10-13 17:53:00
2:53 PM,70.0,61.0,73,30.06,10.0,South,12.7,17.3,N/A,,Mostly Cloudy,180,2012-10-13 18:53:00
3:34 PM,69.8,60.8,73,30.06,10.0,South,9.2,-,N/A,,Mostly Cloudy,190,2012-10-13 19:34:00
3:53 PM,70.0,61.0,73,30.05,10.0,SSW,9.2,-,N/A,,Overcast,210,2012-10-13 19:53:00
4:10 PM,71.6,62.6,73,30.05,10.0,SSW,5.8,-,N/A,,Overcast,200,2012-10-13 20:10:00
4:42 PM,71.6,62.6,73,30.04,10.0,South,9.2,-,N/A,,Mostly Cloudy,190,2012-10-13 20:42:00
4:53 PM,71.1,62.1,73,30.02,10.0,SSW,10.4,-,N/A,,Mostly Cloudy,200,2012-10-13 20:53:00
5:04 PM,71.6,62.6,73,30.03,10.0,SSW,10.4,20.7,N/A,,Mostly Cloudy,200,2012-10-13 21:04:00
5:20 PM,71.6,62.6,73,30.02,10.0,South,9.2,18.4,N/A,,Mostly Cloudy,190,2012-10-13 21:20:00
5:53 PM,71.1,63.0,75,30.01,10.0,South,8.1,-,N/A,,Scattered Clouds,190,2012-10-13 21:53:00
6:53 PM,70.0,63.0,78,30.00,9.0,South,8.1,-,N/A,,Overcast,180,2012-10-13 22:53:00
8:53 PM,69.1,62.1,78,29.99,10.0,South,9.2,-,N/A,,Partly Cloudy,180,2012-10-14 00:53:00
10:53 PM,69.1,62.1,78,29.98,10.0,South,11.5,-,N/A,,Clear,190,2012-10-14 02:53:00
11:53 PM,68.0,62.1,81,29.96,10.0,South,10.4,-,N/A,,Partly Cloudy,190,2012-10-14 03:53:00